Flag Weather past 2 weeks in Santa Cruz de Tenerife, Canary Islands, Spain

Now
64 °F

Partly sunny.


Feels Like: 64 °F
Forecast: N/A
Wind: 16 mph from Northwest

Location: Tenerife / Los Rodeos

Current Time: Oct 31, 2014 at 6:05:26 PM

Latest Report: Oct 31, 2014 at 5:30 PM


Visibility: N/A

Pressure: 30.12 "Hg

Humidity: 88%

Dew point: 61 °F

Location of Santa Cruz de TenerifeLocation

Historic Weather in Santa Cruz de Tenerife — Graph

°F

Santa Cruz de Tenerife temperature yesterday

Maximum temperature yesterday: 70 °F (at 11:30 AM)
Minimum temperature yesterday: 59 °F (at 6:00 AM)
Average temperature yesterday: 65 °F

Past Weeks' High & Low Weather Summary

 TemperatureHumidityPressure
High88 °F (Oct 23, 1:00 PM)100% (Oct 17, 9:00 PM)30.27 "Hg (Oct 17, 9:00 PM)
Low57 °F (Oct 20, 6:30 AM)13% (Oct 23, 11:00 AM)29.80 "Hg (Oct 19, 3:30 PM)
Average70 °F67%30.06 "Hg
* Reported Oct 16 6:00 PM — Oct 31 5:00 PM, Santa Cruz de Tenerife, Weather by CustomWeather, © 2014

Note: Actual official high and low records may vary slightly from our data, if they occured in-between our weather recording intervals... More about our weather records

Advertising

Santa Cruz de Tenerife weather history for previous 24 hours

 ConditionsComfort  
Time TempWeatherWind HumidityBarometerVisibility
5:00 PM
Oct 31
64 °FPartly sunny.15 mph88%30.12 "HgN/A
4:30 PM64 °FScattered clouds.16 mph88%30.09 "HgN/A
4:00 PM66 °FScattered clouds.15 mph83%30.09 "HgN/A
3:30 PM66 °FScattered clouds.15 mph78%30.09 "HgN/A
3:00 PM66 °FScattered clouds.15 mph83%30.09 "HgN/A
2:30 PM68 °FScattered clouds.15 mph83%30.09 "HgN/A
2:00 PM68 °FScattered clouds.16 mph78%30.09 "HgN/A
1:30 PM68 °FPassing clouds.16 mph73%30.12 "HgN/A
1:00 PM68 °FPassing clouds.15 mph73%30.12 "HgN/A
12:30 PM68 °FPassing clouds.13 mph73%30.12 "HgN/A
12:00 PM68 °FPassing clouds.12 mph69%30.15 "HgN/A
11:30 AM68 °FPassing clouds.12 mph73%30.15 "HgN/A
11:00 AM68 °FPassing clouds.12 mph73%30.15 "HgN/A
10:30 AM66 °FPassing clouds.9 mph78%30.15 "HgN/A
10:00 AM66 °FPassing clouds.9 mph78%30.15 "HgN/A
9:30 AM64 °FPassing clouds.8 mph88%30.15 "HgN/A
9:00 AM63 °FPassing clouds.9 mph94%30.12 "HgN/A
8:30 AM63 °FPassing clouds.7 mph88%30.12 "HgN/A
8:00 AM61 °FPassing clouds.8 mph94%30.12 "HgN/A
7:30 AM59 °FPassing clouds.7 mph94%30.09 "HgN/A
7:00 AM59 °FPassing clouds.7 mph94%30.09 "HgN/A
6:30 AM61 °FPassing clouds.6 mph88%30.09 "HgN/A
6:00 AM59 °FPassing clouds.8 mph88%30.07 "HgN/A
11:00 PM
Oct 30
61 °FPassing clouds.2 mph94%30.12 "HgN/A
10:30 PM61 °FPassing clouds.3 mph94%30.12 "HgN/A
10:00 PM61 °FPassing clouds.5 mph94%30.12 "HgN/A
9:30 PM61 °FPassing clouds.6 mph94%30.09 "HgN/A
9:00 PM63 °FPassing clouds.7 mph94%30.09 "HgN/A
8:30 PM63 °FPassing clouds.7 mph94%30.09 "HgN/A
8:00 PM63 °FPassing clouds.7 mph94%30.07 "HgN/A
7:30 PM63 °FPassing clouds.8 mph94%30.07 "HgN/A
7:00 PM63 °FPassing clouds.8 mph94%30.07 "HgN/A
6:30 PM63 °FPassing clouds.7 mph94%30.04 "HgN/A
6:00 PM64 °FPassing clouds.6 mph88%30.04 "HgN/A
Weather by CustomWeather, © 2014

See weather overviewHow to use our weather pages